P/2008 O3 ( Boattini )

Japanese version
Home page
Total 6,336 html files since Dec. 4, 1995
Updated on October 12, 2008

---------------------------------------------------------------------

* Profile

Discovery Date July 29, 2008
Magnitude 19.4 mag
Discoverer A. Boattini (Mt. Lemmon)

* Orbital Elements

Epoch 2008 June 23.0 TT = JDT 2454640.5
T 2008 June 3.21922 TT                                  MPC
q   2.4981936            (2000.0)            P               Q
n   0.04183486     Peri.  341.03056     +0.84083775     -0.37098799
a   8.2182088      Node    47.57855     +0.53943842     +0.51419200
e   0.6960173      Incl.   32.27215     +0.04469975     +0.77328811
P  23.56

* Magnitudes Graph

        m1 = 12.5 + 5 log d + 10.0 log r

---------------------------------------------------------------------

The orbital elements are published on M.P.E.C. 2008-R72.
The magnitudes graphs are made with Comet for Windows.

---------------------------------------------------------------------

Copyright(C) 1995-2008 Seiichi Yoshida (comet@aerith.net). All rights reserved.